Time,TemperatureF,DewpointF,PressureIn,WindDirection,WindDirectionDegrees,WindSpeedMPH,WindSpeedGustMPH,Humidity,HourlyPrecipIn,Conditions,Clouds,dailyrainin,SoftwareType,DateUTC
2013-04-02 00:05:00,50.0,37.5,29.73,North,0,0.0,-999.0,62,-99.99,,,0.00,Acu-Link.com,2013-04-02 04:05:00,
2013-04-02 00:20:00,48.2,36.2,29.73,WSW,247,0.0,-999.0,63,-99.99,,,0.00,Acu-Link.com,2013-04-02 04:20:00,
2013-04-02 00:36:00,46.4,35.7,29.75,North,0,0.0,-999.0,66,-99.99,,,0.00,Acu-Link.com,2013-04-02 04:36:00,
2013-04-02 00:51:00,46.4,35.7,29.75,WNW,292,0.0,-999.0,66,-99.99,,,0.00,Acu-Link.com,2013-04-02 04:51:00,
2013-04-02 01:06:00,46.4,35.7,29.75,NNE,22,1.6,-999.0,66,-99.99,,,0.00,Acu-Link.com,2013-04-02 05:06:00,
2013-04-02 01:21:00,46.4,34.9,29.75,SW,225,1.6,-999.0,64,-99.99,,,0.00,Acu-Link.com,2013-04-02 05:21:00,
2013-04-02 01:37:00,46.4,36.4,29.76,NW,315,1.1,-999.0,68,-99.99,,,0.00,Acu-Link.com,2013-04-02 05:37:00,
2013-04-02 01:52:00,48.2,35.8,29.76,SW,225,1.1,-999.0,62,-99.99,,,0.00,Acu-Link.com,2013-04-02 05:52:00,
2013-04-02 02:07:00,48.2,34.6,29.76,ESE,112,2.0,-999.0,59,-99.99,,,0.00,Acu-Link.com,2013-04-02 06:07:00,
2013-04-02 02:22:00,48.2,34.6,29.76,NNE,22,1.1,-999.0,59,-99.99,,,0.00,Acu-Link.com,2013-04-02 06:22:00,
2013-04-02 02:38:00,48.2,35.0,29.78,ESE,112,2.0,-999.0,60,-99.99,,,0.00,Acu-Link.com,2013-04-02 06:38:00,
2013-04-02 02:53:00,46.4,34.1,29.78,ESE,112,2.0,-999.0,62,-99.99,,,0.00,Acu-Link.com,2013-04-02 06:53:00,
2013-04-02 03:08:00,46.4,34.9,29.79,NNE,22,0.0,-999.0,64,-99.99,,,0.00,Acu-Link.com,2013-04-02 07:08:00,
2013-04-02 03:23:00,44.6,34.3,29.79,North,0,3.1,-999.0,67,-99.99,,,0.00,Acu-Link.com,2013-04-02 07:23:00,
2013-04-02 03:38:00,44.6,34.3,29.79,NNE,22,1.6,-999.0,67,-99.99,,,0.00,Acu-Link.com,2013-04-02 07:38:00,
2013-04-02 03:53:00,42.8,33.3,29.79,NNE,22,0.0,-999.0,69,-99.99,,,0.00,Acu-Link.com,2013-04-02 07:53:00,
2013-04-02 04:09:00,42.8,34.1,29.80,NNW,337,1.1,-999.0,71,-99.99,,,0.00,Acu-Link.com,2013-04-02 08:09:00,
2013-04-02 04:24:00,42.8,34.4,29.80,NW,315,0.0,-999.0,72,-99.99,,,0.00,Acu-Link.com,2013-04-02 08:24:00,
2013-04-02 04:40:00,41.0,33.7,29.81,NE,45,0.0,-999.0,75,-99.99,,,0.00,Acu-Link.com,2013-04-02 08:40:00,
2013-04-02 04:55:00,39.2,32.9,29.81,NNE,22,0.0,-999.0,78,-99.99,,,0.00,Acu-Link.com,2013-04-02 08:55:00,
2013-04-02 05:10:00,37.4,31.5,29.82,NNE,22,0.0,-999.0,79,-99.99,,,0.00,Acu-Link.com,2013-04-02 09:10:00,
2013-04-02 05:25:00,37.4,32.7,29.83,NNE,22,0.0,-999.0,83,-99.99,,,0.00,Acu-Link.com,2013-04-02 09:25:00,
2013-04-02 05:40:00,37.4,33.3,29.84,NNE,22,0.0,-999.0,85,-99.99,,,0.00,Acu-Link.com,2013-04-02 09:40:00,
2013-04-02 05:55:00,37.4,33.9,29.84,North,0,0.0,-999.0,87,-99.99,,,0.00,Acu-Link.com,2013-04-02 09:55:00,
2013-04-02 06:10:00,35.6,31.8,29.85,North,0,0.0,-999.0,86,-99.99,,,0.00,Acu-Link.com,2013-04-02 10:10:00,
2013-04-02 06:26:00,35.6,32.4,29.86,North,0,0.0,-999.0,88,-99.99,,,0.00,Acu-Link.com,2013-04-02 10:26:00,
2013-04-02 06:56:00,35.6,32.7,29.87,NNE,22,1.6,-999.0,89,-99.99,,,0.00,Acu-Link.com,2013-04-02 10:56:00,
2013-04-02 07:11:00,35.6,32.7,29.89,NNE,22,0.0,-999.0,89,-99.99,,,0.00,Acu-Link.com,2013-04-02 11:11:00,
2013-04-02 07:27:00,35.6,32.4,29.89,NW,315,1.6,-999.0,88,-99.99,,,0.00,Acu-Link.com,2013-04-02 11:27:00,
2013-04-02 07:42:00,35.6,32.1,29.90,NNE,22,0.0,-999.0,87,-99.99,,,0.00,Acu-Link.com,2013-04-02 11:42:00,
2013-04-02 07:57:00,37.4,33.6,29.91,NNE,22,1.6,-999.0,86,-99.99,,,0.00,Acu-Link.com,2013-04-02 11:57:00,
2013-04-02 08:13:00,37.4,32.1,29.92,NNE,22,1.1,-999.0,81,-99.99,,,0.00,Acu-Link.com,2013-04-02 12:13:00,
2013-04-02 08:28:00,42.8,34.4,29.92,East,90,1.6,-999.0,72,-99.99,,,0.00,Acu-Link.com,2013-04-02 12:28:00,
2013-04-02 08:43:00,48.2,35.0,29.92,NW,315,2.7,-999.0,60,-99.99,,,0.00,Acu-Link.com,2013-04-02 12:43:00,
2013-04-02 08:59:00,51.8,32.2,29.93,SSE,157,5.6,-999.0,47,-99.99,,,0.00,Acu-Link.com,2013-04-02 12:59:00,
2013-04-02 09:14:00,53.6,32.2,29.92,NNE,22,5.6,-999.0,44,-99.99,,,0.00,Acu-Link.com,2013-04-02 13:14:00,
2013-04-02 09:29:00,55.4,32.7,29.93,NNE,22,3.6,-999.0,42,-99.99,,,0.00,Acu-Link.com,2013-04-02 13:29:00,
2013-04-02 09:44:00,51.8,29.4,29.93,NNE,22,3.6,-999.0,42,-99.99,,,0.00,Acu-Link.com,2013-04-02 13:44:00,
2013-04-02 09:59:00,51.8,30.6,29.93,ENE,67,3.1,-999.0,44,-99.99,,,0.00,Acu-Link.com,2013-04-02 13:59:00,
2013-04-02 10:14:00,50.0,28.4,29.93,SSW,202,2.7,-999.0,43,-99.99,,,0.00,Acu-Link.com,2013-04-02 14:14:00,
2013-04-02 10:29:00,51.8,30.0,29.93,SSW,202,2.7,-999.0,43,-99.99,,,0.00,Acu-Link.com,2013-04-02 14:29:00,
2013-04-02 10:45:00,51.8,30.6,29.93,SW,225,4.7,-999.0,44,-99.99,,,0.00,Acu-Link.com,2013-04-02 14:45:00,
2013-04-02 11:00:00,53.6,33.9,29.94,WNW,292,1.6,-999.0,47,-99.99,,,0.00,Acu-Link.com,2013-04-02 15:00:00,
2013-04-02 11:15:00,55.4,32.7,29.94,West,270,1.6,-999.0,42,-99.99,,,0.00,Acu-Link.com,2013-04-02 15:15:00,
2013-04-02 11:30:00,55.4,32.7,29.93,NW,315,2.0,-999.0,42,-99.99,,,0.00,Acu-Link.com,2013-04-02 15:30:00,
2013-04-02 12:01:00,53.6,29.3,29.93,SSE,157,1.6,-999.0,39,-99.99,,,0.00,Acu-Link.com,2013-04-02 16:01:00,
2013-04-02 12:32:00,59.0,35.3,29.92,SSW,202,3.1,-999.0,41,-99.99,,,0.00,Acu-Link.com,2013-04-02 16:32:00,
2013-04-02 12:47:00,59.0,33.4,29.92,NNE,22,3.6,-999.0,38,-99.99,,,0.00,Acu-Link.com,2013-04-02 16:47:00,
2013-04-02 13:02:00,59.0,34.1,29.91,South,180,4.0,-999.0,39,-99.99,,,0.00,Acu-Link.com,2013-04-02 17:02:00,
2013-04-02 13:18:00,59.0,34.7,29.90,South,180,3.1,-999.0,40,-99.99,,,0.00,Acu-Link.com,2013-04-02 17:18:00,
2013-04-02 13:48:00,59.0,32.1,29.89,South,180,6.3,-999.0,36,-99.99,,,0.00,Acu-Link.com,2013-04-02 17:48:00,
2013-04-02 14:03:00,59.0,32.1,29.89,South,180,4.7,-999.0,36,-99.99,,,0.00,Acu-Link.com,2013-04-02 18:03:00,
2013-04-02 14:19:00,60.8,34.4,29.87,South,180,3.1,-999.0,37,-99.99,,,0.00,Acu-Link.com,2013-04-02 18:19:00,
2013-04-02 14:49:00,60.8,30.8,29.85,South,180,5.1,-999.0,32,-99.99,,,0.00,Acu-Link.com,2013-04-02 18:49:00,
2013-04-02 15:04:00,60.8,32.3,29.85,South,180,1.6,-999.0,34,-99.99,,,0.00,Acu-Link.com,2013-04-02 19:04:00,
2013-04-02 15:19:00,62.6,33.1,29.85,South,180,2.0,-999.0,33,-99.99,,,0.00,Acu-Link.com,2013-04-02 19:19:00,
2013-04-02 15:35:00,60.8,30.8,29.84,South,180,6.7,-999.0,32,-99.99,,,0.00,Acu-Link.com,2013-04-02 19:35:00,
2013-04-02 15:50:00,60.8,30.8,29.83,SSE,157,3.6,-999.0,32,-99.99,,,0.00,Acu-Link.com,2013-04-02 19:50:00,
2013-04-02 16:05:00,62.6,28.2,29.82,East,90,4.7,-999.0,27,-99.99,,,0.00,Acu-Link.com,2013-04-02 20:05:00,
2013-04-02 16:21:00,64.4,30.6,29.82,West,270,2.0,-999.0,28,-99.99,,,0.00,Acu-Link.com,2013-04-02 20:21:00,
2013-04-02 16:36:00,62.6,28.2,29.81,South,180,4.7,-999.0,27,-99.99,,,0.00,Acu-Link.com,2013-04-02 20:36:00,
2013-04-02 16:51:00,62.6,29.0,29.81,South,180,4.7,-999.0,28,-99.99,,,0.00,Acu-Link.com,2013-04-02 20:51:00,
2013-04-02 17:06:00,64.4,30.6,29.81,South,180,2.7,-999.0,28,-99.99,,,0.00,Acu-Link.com,2013-04-02 21:06:00,
2013-04-02 17:37:00,62.6,28.2,29.81,SSW,202,2.7,-999.0,27,-99.99,,,0.00,Acu-Link.com,2013-04-02 21:37:00,
2013-04-02 17:52:00,64.4,28.8,29.81,WSW,247,0.0,-999.0,26,-99.99,,,0.00,Acu-Link.com,2013-04-02 21:52:00,
2013-04-02 18:07:00,66.2,29.3,29.81,WNW,292,0.0,-999.0,25,-99.99,,,0.00,Acu-Link.com,2013-04-02 22:07:00,
2013-04-02 18:38:00,62.6,32.3,29.82,NW,315,2.0,-999.0,32,-99.99,,,0.00,Acu-Link.com,2013-04-02 22:38:00,
2013-04-02 18:53:00,60.8,28.3,29.82,WNW,292,0.0,-999.0,29,-99.99,,,0.00,Acu-Link.com,2013-04-02 22:53:00,
2013-04-02 19:08:00,59.0,32.1,29.83,NE,45,0.0,-999.0,36,-99.99,,,0.00,Acu-Link.com,2013-04-02 23:08:00,
2013-04-02 19:23:00,55.4,32.1,29.82,NNE,22,0.0,-999.0,41,-99.99,,,0.00,Acu-Link.com,2013-04-02 23:23:00,
2013-04-02 19:38:00,53.6,33.3,29.82,NNE,22,1.1,-999.0,46,-99.99,,,0.00,Acu-Link.com,2013-04-02 23:38:00,
2013-04-02 19:54:00,53.6,33.9,29.82,NNE,22,0.0,-999.0,47,-99.99,,,0.00,Acu-Link.com,2013-04-02 23:54:00,
2013-04-02 20:09:00,51.8,32.2,29.83,NNE,22,0.0,-999.0,47,-99.99,,,0.00,Acu-Link.com,2013-04-03 00:09:00,
2013-04-02 20:24:00,50.0,31.1,29.83,WNW,292,1.1,-999.0,48,-99.99,,,0.00,Acu-Link.com,2013-04-03 00:24:00,
2013-04-02 20:39:00,50.0,29.5,29.85,NNW,337,0.0,-999.0,45,-99.99,,,0.00,Acu-Link.com,2013-04-03 00:39:00,
2013-04-02 20:55:00,50.0,28.4,29.85,NW,315,1.6,-999.0,43,-99.99,,,0.00,Acu-Link.com,2013-04-03 00:55:00,
2013-04-02 21:10:00,51.8,25.0,29.85,NE,45,1.1,-999.0,35,-99.99,,,0.00,Acu-Link.com,2013-04-03 01:10:00,
2013-04-02 21:25:00,51.8,25.0,29.86,South,180,2.0,-999.0,35,-99.99,,,0.00,Acu-Link.com,2013-04-03 01:25:00,
2013-04-02 21:40:00,53.6,22.1,29.87,NE,45,2.0,-999.0,29,-99.99,,,0.00,Acu-Link.com,2013-04-03 01:40:00,
2013-04-02 21:55:00,53.6,24.5,29.88,West,270,1.1,-999.0,32,-99.99,,,0.00,Acu-Link.com,2013-04-03 01:55:00,
2013-04-02 22:11:00,51.8,22.9,29.88,NNW,337,1.6,-999.0,32,-99.99,,,0.00,Acu-Link.com,2013-04-03 02:11:00,
2013-04-02 22:41:00,51.8,25.0,29.90,East,90,0.0,-999.0,35,-99.99,,,0.00,Acu-Link.com,2013-04-03 02:41:00,
2013-04-02 23:27:00,51.8,23.6,29.89,NE,45,4.0,-999.0,33,-99.99,,,0.00,Acu-Link.com,2013-04-03 03:27:00,
2013-04-02 23:42:00,51.8,23.6,29.90,SW,225,0.0,-999.0,33,-99.99,,,0.00,Acu-Link.com,2013-04-03 03:42:00,
2013-04-02 23:57:00,51.8,28.3,29.90,NNE,22,1.1,-999.0,40,-99.99,,,0.00,Acu-Link.com,2013-04-03 03:57:00,